Vorticity
5 6 6 6 6 6 5 7 7 7 7 7 7 6 8 10 12 11 9 6 8 8 7 7 7 7 8 9 9 6 3 7 -0 13 8 13 -1 5 4 4 4 4 5 3 12
10 9 5 7 7 7 6 6 7 8 7 7 8 7 5 8 11 12 9 8 9 9 9 9 11 9 8 7 5 5 6 10 1 10 8 7 3 8 7 5 5 3 3 6 9
9 7 9 9 6 7 7 7 6 5 9 8 6 7 8 5 9 11 8 8 7 9 10 9 9 11 8 8 0 1 1 1 9 4 15 8 14 6 6 3 1 4 3 4 9
7 9 9 7 8 8 7 7 7 7 4 10 9 7 7 7 11 19 19 14 15 11 13 10 10 8 10 7 8 6 12 -8 9 5 6 6 8 7 4 4 5 3 2 1 6
5 7 8 8 7 7 6 7 7 7 7 6 9 8 8 6 8 5 -1 -1 8 12 14 13 11 11 10 17 12 8 1 19 -1 9 4 5 3 0 3 5 5 3 1 3 11
6 5 4 5 9 7 8 8 7 6 7 7 7 9 8 5 8 11 4 8 3 7 9 9 7 5 16 3 8 26 12 2 10 15 5 4 2 1 5 6 7 6 7 9 8
9 7 6 5 5 8 8 8 9 7 5 7 7 6 10 8 4 4 6 7 13 9 9 9 8 7 12 16 6 -7 2 17 9 4 6 12 11 8 14 16 4 11 11 8 8
10 9 8 8 6 6 9 8 10 8 8 6 6 7 7 4 6 8 7 10 7 14 10 11 12 12 0 0 22 5 7 -2 17 10 12 8 -5 6 21 13 12 8 9 9 7
10 10 9 8 8 9 7 9 9 8 8 8 8 6 15 15 14 10 8 6 8 13 12 8 11 10 -4 5 1 15 9 18 -11 9 13 13 21 29 20 12 18 14 9 8 9
8 10 9 10 9 9 14 9 4 7 5 4 5 10 11 -0 -2 0 22 13 12 16 11 7 9 6 3 -3 -4 -6 1 0 16 27 9 6 7 -1 7 12 13 12 11 9 8
7 3 13 10 11 10 11 13 10 10 6 9 -24 -5 3 4 4 11 24 11 13 13 9 8 8 2 9 6 -7 2 12 21 12 -2 10 8 1 5 5 6 6 7 8 9 10
12 17 9 16 12 14 1 6 9 -7 9 4 6 6 6 4 6 -0 8 13 12 9 11 1 6 7 4 9 10 1 9 7 11 11 7 1 3 4 4 4 7 9 6 7 8
14 5 9 17 27 16 12 1 8 13 2 12 2 4 9 9 7 5 10 17 11 9 8 5 13 41 12 12 13 -2 3 -2 -8 13 8 1 28 17 6 3 5 6 6 6 5
14 18 28 5 -0 29 11 18 11 11 11 26 13 25 14 11 4 6 5 12 13 16 12 18 12 -22 25 7 15 6 -2 7 8 10 0 20 -3 19 21 32 22 15 8 8 4
1 14 30 -3 9 14 23 18 9 16 2 34 42 10 8 21 15 17 4 5 3 -2 5 1 35 4 25 3 8 11 20 9 9 9 -7 11 0 34 18 5 3 14 19 14 11
16 4 14 30 -4 8 17 20 17 -5 15 11 9 18 9 10 21 7 32 11 13 8 8 3 15 17 12 18 18 7 11 14 11 8 13 26 -11 25 20 28 24 19 20 16 12
21 19 5 14 28 16 28 6 10 -40 16 15 -2 10 13 18 16 10 16 6 -19 6 12 23 9 14 14 3 12 -2 17 4 6 7 2 23 10 -26 3 13 14 13 19 16 12
21 8 18 18 23 -0 21 -2 -8 27 -19 -3 44 21 14 20 23 12 32 8 7 -6 59 -1 55 7 26 13 -11 1 -11 -0 7 10 14 16 15 12 32 -4 13 2 6 17 16
17 18 -1 31 10 21 4 -22 9 11 32 -14 -11 23 15 14 3 -4 10 20 8 -1 -40 13 -21 57 10 9 5 31 -1 -23 2 10 1 5 27 2 7 6 10 5 13 20 20
11 14 20 12 9 24 24 -63 24 6 -16 31 -4 -5 10 7 -1 10 8 56 14 -9 -1 24 15 33 1 8 14 6 15 5 6 5 7 16 12 -28 35 4 9 8 17 13 10
12 12 5 9 15 18 24 18 8 -6 14 8 10 12 -1 3 16 17 4 -29 59 18 -20 -23 -21 44 -4 20 10 -7 25 -15 9 -4 5 8 22 22 -3 3 23 21 17 13 9
11 9 19 25 22 17 23 5 61 -22 34 -9 17 27 14 1 20 7 1 -22 55 47 24 -20 10 14 -4 15 -3 13 9 -14 -26 26 3 7 19 14 19 6 9 11 11 6 8
9 9 -4 3 10 11 47 45 -49 30 19 -8 -36 -3 3 10 -2 21 45 18 -36 28 38 2 13 3 41 17 25 9 2 19 -26 16 6 -14 16 14 8 11 7 2 6 6 4
11 15 52 23 -9 15 9 18 20 -2 14 8 20 8 5 5 -5 -30 18 27 -2 24 -10 37 -7 -18 -13 17 26 11 7 -5 -11 -2 18 -10 18 14 13 7 5 11 9 7 6
15 7 -1 -0 10 1 14 -6 -5 -9 -7 24 24 15 10 8 17 13 27 18 17 17 -7 25 -19 -14 -12 4 31 23 22 13 -7 -26 -11 16 -16 -14 11 -3 11 15 -5 10 8
15 32 5 18 18 24 34 28 25 -16 30 12 6 -2 13 6 9 -15 30 22 -8 26 19 3 27 6 5 0 12 14 30 32 21 -2 1 -26 -4 31 10 -0 7 1 -0 7 10
11 13 5 28 0 19 33 21 32 31 5 16 -3 16 16 9 13 3 38 27 23 4 14 12 -3 15 22 6 -2 25 10 32 22 17 9 5 20 -6 6 9 6 6 7 9 5
Height
3083 3081 3079 3077 3075 3073 3071 3070 3068 3067 3065 3064 3063 3062 3061 3060 3060 3059 3059 3060 3062 3064 3065 3066 3068 3069 3070 3071 3073 3076 3077 3076 3078 3080 3082 3083 3083 3085 3087 3090 3092 3093 3094 3095 3098
3078 3077 3075 3074 3072 3070 3068 3066 3065 3063 3062 3061 3059 3058 3058 3057 3057 3057 3055 3055 3057 3059 3061 3063 3064 3065 3066 3068 3069 3072 3072 3073 3076 3078 3079 3080 3081 3083 3085 3087 3089 3090 3091 3092 3095
3075 3072 3071 3069 3068 3066 3064 3062 3061 3059 3057 3056 3055 3054 3053 3054 3053 3053 3052 3051 3052 3055 3057 3058 3060 3062 3063 3064 3065 3067 3067 3071 3073 3075 3076 3077 3078 3079 3081 3084 3086 3087 3088 3089 3092
3069 3068 3066 3064 3062 3061 3059 3058 3057 3055 3054 3052 3051 3050 3050 3050 3053 3049 3049 3047 3048 3049 3052 3054 3055 3057 3058 3059 3061 3064 3065 3068 3069 3071 3073 3074 3076 3076 3078 3081 3083 3083 3083 3084 3087
3062 3061 3059 3058 3057 3055 3053 3052 3052 3051 3050 3048 3047 3046 3046 3047 3047 3048 3047 3047 3046 3046 3048 3050 3052 3053 3055 3056 3058 3059 3063 3064 3065 3067 3069 3070 3071 3073 3074 3077 3079 3079 3079 3081 3083
3054 3053 3052 3050 3049 3048 3047 3047 3046 3046 3045 3044 3043 3042 3042 3044 3042 3042 3043 3044 3044 3043 3044 3046 3049 3052 3053 3054 3055 3057 3060 3060 3061 3063 3064 3066 3067 3066 3070 3072 3072 3073 3075 3076 3079
3048 3045 3044 3042 3041 3040 3039 3039 3039 3038 3039 3038 3038 3036 3036 3039 3037 3037 3038 3040 3040 3040 3040 3043 3046 3049 3048 3051 3052 3054 3056 3056 3056 3059 3060 3061 3059 3059 3065 3065 3068 3069 3070 3072 3074
3039 3037 3036 3035 3033 3032 3031 3031 3031 3032 3032 3032 3031 3030 3030 3031 3032 3033 3033 3034 3036 3037 3037 3039 3042 3045 3047 3048 3048 3051 3052 3053 3052 3055 3056 3058 3052 3056 3058 3058 3061 3064 3065 3067 3069
3028 3027 3027 3025 3025 3024 3023 3023 3023 3024 3024 3025 3025 3024 3024 3024 3027 3026 3028 3029 3030 3033 3033 3035 3039 3041 3043 3044 3046 3046 3044 3046 3050 3050 3051 3052 3051 3051 3053 3054 3056 3058 3060 3062 3065
3017 3015 3014 3014 3014 3014 3014 3014 3014 3015 3015 3017 3017 3021 3020 3020 3020 3020 3022 3023 3025 3027 3029 3031 3034 3034 3036 3038 3035 3036 3039 3042 3044 3045 3046 3047 3048 3049 3050 3050 3052 3054 3055 3057 3059
3004 3004 3003 3003 3005 3005 3006 3006 3008 3007 3005 3009 3009 3010 3012 3013 3014 3015 3016 3018 3019 3021 3022 3025 3026 3020 3026 3033 3036 3036 3037 3038 3041 3043 3044 3044 3045 3046 3046 3047 3047 3049 3050 3052 3055
2992 2991 2990 2992 2993 2994 2995 2996 2998 2998 2995 2997 2999 3000 3004 3006 3007 3009 3012 3014 3014 3015 3017 3019 3015 3025 3029 3032 3034 3035 3035 3035 3039 3040 3041 3041 3039 3041 3040 3041 3043 3045 3046 3048 3050
2979 2980 2981 2980 2980 2982 2984 2989 2990 2990 2987 2984 2989 2989 2995 2998 2999 3002 3007 3008 3009 3011 3012 3013 3017 3021 3024 3025 3028 3031 3031 3033 3037 3038 3038 3038 3033 3033 3034 3034 3035 3037 3042 3044 3046
2968 2968 2970 2972 2970 2972 2973 2982 2983 2984 2981 2975 2977 2976 2983 2987 2986 2995 2999 3006 3004 3006 3011 3012 3013 3015 3018 3021 3023 3026 3030 3031 3033 3036 3036 3036 3032 3026 3026 3027 3028 3030 3032 3037 3040
2958 2957 2957 2958 2960 2964 2968 2971 2975 2978 2976 2969 2968 2970 2974 2977 2980 2983 2992 2997 2998 3003 3007 3005 3008 3011 3013 3017 3021 3023 3027 3030 3030 3033 3034 3031 3034 3019 3022 3022 3023 3024 3025 3030 3035
2946 2948 2948 2948 2949 2958 2961 2964 2967 2971 2961 2960 2960 2962 2966 2969 2971 2976 2982 2988 2994 2999 3000 3004 3005 3008 3010 3014 3019 3020 3024 3028 3030 3032 3032 3023 3028 3015 3016 3017 3017 3018 3021 3026 3030
2937 2937 2935 2938 2942 2945 2951 2957 2958 2951 2953 2954 2955 2957 2959 2961 2965 2969 2973 2975 2981 2989 2992 2997 3000 3002 3006 3011 3015 3017 3020 3028 3035 3035 3026 3019 3022 3009 3012 3013 3014 3016 3018 3022 3025
2927 2926 2927 2931 2935 2935 2940 2946 2934 2939 2943 2947 2949 2952 2954 2957 2961 2964 2968 2971 2976 2980 2982 2989 2996 2995 2998 3001 3003 3011 3013 3013 3021 3025 3017 3017 3012 3004 3006 3009 3011 3012 3014 3016 3020
2917 2917 2919 2924 2927 2927 2929 2926 2924 2930 2937 2943 2945 2947 2950 2953 2957 2959 2962 2964 2968 2973 2979 2980 2987 2988 2993 2997 3003 3005 3006 3010 3011 3013 3013 3008 3003 3002 3003 3005 3007 3009 3011 3012 3016
2911 2911 2912 2916 2919 2921 2919 2917 2920 2925 2932 2937 2939 2943 2944 2947 2951 2953 2956 2956 2961 2968 2974 2976 2982 2983 2988 2993 2996 2997 3003 3008 3008 3017 3014 3003 2999 2994 2997 3001 3004 3006 3008 3011 3015
2907 2905 2906 2909 2912 2913 2909 2913 2917 2922 2928 2933 2935 2937 2939 2941 2945 2946 2948 2952 2954 2959 2969 2972 2974 2980 2986 2985 2985 2991 2992 2997 3000 3001 3002 3005 2993 2990 2995 2999 3002 3004 3007 3010 3014
2903 2901 2901 2902 2907 2905 2905 2911 2914 2918 2925 2928 2930 2933 2935 2937 2938 2943 2942 2946 2949 2953 2958 2966 2970 2974 2977 2979 2983 2985 2987 2990 2991 2995 2995 2994 2991 2989 2992 2997 3000 3003 3006 3010 3014
2897 2896 2898 2898 2900 2902 2903 2907 2910 2915 2920 2922 2925 2928 2932 2934 2937 2935 2937 2939 2944 2946 2947 2956 2964 2970 2977 2980 2976 2976 2980 2984 2986 2988 2988 2992 2988 2987 2991 2994 2998 3002 3005 3008 3011
2896 2894 2892 2894 2896 2897 2901 2904 2909 2912 2913 2917 2920 2925 2927 2928 2930 2931 2929 2933 2938 2942 2946 2953 2955 2959 2963 2964 2966 2967 2970 2977 2982 2983 2982 2983 2984 2986 2989 2993 2996 2999 3003 3006 3009
2892 2891 2892 2891 2890 2892 2896 2900 2905 2906 2909 2910 2915 2918 2921 2925 2927 2926 2926 2929 2933 2937 2941 2946 2948 2955 2959 2961 2961 2960 2962 2966 2970 2976 2978 2979 2982 2985 2989 2992 2994 2997 2999 3002 3004
2889 2889 2891 2890 2889 2893 2892 2894 2899 2902 2905 2907 2911 2914 2918 2919 2923 2924 2922 2924 2926 2931 2935 2941 2944 2950 2956 2959 2959 2958 2958 2961 2967 2969 2973 2974 2977 2981 2985 2987 2989 2992 2994 2997 3000
2887 2888 2889 2888 2890 2890 2890 2891 2895 2900 2902 2904 2908 2911 2913 2916 2920 2921 2918 2919 2922 2925 2930 2937 2942 2948 2953 2955 2958 2957 2952 2953 2957 2960 2965 2967 2971 2977 2980 2982 2984 2987 2990 2992 2995